[Date Prev][Date Next][Thread Prev][Thread Next] - [Date Index][Thread Index][Author Index]

2 Line ISS Keps 6-6



ISS
1 25544U 98067A   02157.14078704  .00031598  00000-0  38048-3 0  5332
2 25544  51.6348 108.4412 0006527 155.5305  35.5650 15.60499981202306


----
Via the sarex mailing list at AMSAT.ORG courtesy of AMSAT-NA.
To unsubscribe, send "unsubscribe sarex" to Majordomo@amsat.org



AMSAT Top AMSAT Home